contact:dominique.lefevre@mio.osupytheas.fr, maurice.libes@osupytheas.fr, didier.mallarino@osupytheas.fr
Project:EMSO http://www.emso-fr.org/EMSO-France
Depth: 2436.0 m
Title:EMSO Ligure Ouest : Data MII capteur CSTAR
DateTime,Latitude,Longitude,Instrument_Serial,Reference_Counts,Signal_Counts,Corrected_Signal_raw_counts,Calculated_Beam_c_inverse_meters,Internal_thermistor_counts
DateTime,Latitude,Longitude,Instrument_Serial,Reference_Counts,Signal_Counts,Corrected_Signal_raw_counts,Calculated_Beam_c_inverse_meters,Internal_thermistor_counts
2019-08-12T00:00:38,42.805,6.029,CST-1368DR,8339,11669,15430,0.048,551
2019-08-12T00:03:40,42.805,6.029,CST-1368DR,8339,11668,15429,0.048,551
2019-08-12T00:06:41,42.805,6.029,CST-1368DR,8339,11669,15430,0.048,550
2019-08-12T00:09:43,42.805,6.029,CST-1368DR,8339,11669,15430,0.048,551
2019-08-12T00:12:45,42.805,6.029,CST-1368DR,8339,11669,15430,0.048,551
2019-08-12T00:15:46,42.805,6.029,CST-1368DR,8339,11670,15431,0.048,551
2019-08-12T00:18:48,42.805,6.029,CST-1368DR,8339,11666,15426,0.049,551
2019-08-12T00:21:50,42.805,6.029,CST-1368DR,8339,11668,15428,0.048,551
2019-08-12T00:24:51,42.805,6.029,CST-1368DR,8339,11669,15431,0.048,551
2019-08-12T00:27:53,42.805,6.029,CST-1368DR,8339,11669,15431,0.048,551
2019-08-12T00:30:55,42.805,6.029,CST-1368DR,8339,11668,15429,0.048,551
2019-08-12T00:33:56,42.805,6.029,CST-1368DR,8339,11663,15422,0.050,551
2019-08-12T00:36:58,42.805,6.029,CST-1368DR,8339,11670,15431,0.048,551
2019-08-12T00:39:59,42.805,6.029,CST-1368DR,8339,11670,15431,0.048,551
2019-08-12T00:43:01,42.805,6.029,CST-1368DR,8339,11670,15431,0.048,551
2019-08-12T00:46:03,42.805,6.029,CST-1368DR,8338,11668,15430,0.048,551
2019-08-12T00:49:05,42.805,6.029,CST-1368DR,8338,11668,15431,0.048,551
2019-08-12T00:52:06,42.805,6.029,CST-1368DR,8339,11667,15428,0.048,551
2019-08-12T00:55:08,42.805,6.029,CST-1368DR,8338,11669,15432,0.047,551
2019-08-12T00:58:09,42.805,6.029,CST-1368DR,8339,11668,15429,0.048,551
2019-08-12T01:01:11,42.805,6.029,CST-1368DR,8338,11631,15382,0.060,551
2019-08-12T01:04:13,42.805,6.029,CST-1368DR,8338,11668,15430,0.048,551
2019-08-12T01:07:14,42.805,6.029,CST-1368DR,8338,11669,15432,0.047,551
2019-08-12T01:10:16,42.805,6.029,CST-1368DR,8338,11667,15429,0.048,550
2019-08-12T01:13:18,42.805,6.029,CST-1368DR,8338,11668,15431,0.048,551
2019-08-12T01:16:19,42.805,6.029,CST-1368DR,8338,11665,15427,0.049,551
2019-08-12T01:19:21,42.805,6.029,CST-1368DR,8338,11669,15431,0.048,550
2019-08-12T01:22:23,42.805,6.029,CST-1368DR,8338,11667,15430,0.048,551
2019-08-12T01:25:24,42.805,6.029,CST-1368DR,8338,11668,15430,0.048,551
2019-08-12T01:28:26,42.805,6.029,CST-1368DR,8338,11667,15430,0.048,551
2019-08-12T01:31:28,42.805,6.029,CST-1368DR,8338,11666,15428,0.048,551
2019-08-12T01:34:29,42.805,6.029,CST-1368DR,8338,11668,15430,0.048,551
2019-08-12T01:37:31,42.805,6.029,CST-1368DR,8338,11668,15431,0.048,551
2019-08-12T01:40:33,42.805,6.029,CST-1368DR,8338,11668,15430,0.048,551
2019-08-12T01:43:35,42.805,6.029,CST-1368DR,8338,11667,15429,0.048,551
2019-08-12T01:46:37,42.805,6.029,CST-1368DR,8338,11666,15427,0.049,551
2019-08-12T01:49:39,42.805,6.029,CST-1368DR,8338,11668,15430,0.048,551
2019-08-12T01:52:40,42.805,6.029,CST-1368DR,8338,11668,15431,0.048,551
2019-08-12T01:55:42,42.805,6.029,CST-1368DR,8338,11666,15427,0.049,551
2019-08-12T01:58:44,42.805,6.029,CST-1368DR,8338,11667,15430,0.048,551
2019-08-12T02:01:46,42.805,6.029,CST-1368DR,8338,11666,15427,0.049,551
2019-08-12T02:04:48,42.805,6.029,CST-1368DR,8338,11668,15430,0.048,551
2019-08-12T02:07:50,42.805,6.029,CST-1368DR,8338,11666,15427,0.049,551
2019-08-12T02:10:51,42.805,6.029,CST-1368DR,8338,11668,15430,0.048,551
2019-08-12T02:13:53,42.805,6.029,CST-1368DR,8338,11666,15428,0.048,551
2019-08-12T02:16:55,42.805,6.029,CST-1368DR,8338,11667,15430,0.048,551
2019-08-12T02:19:57,42.805,6.029,CST-1368DR,8338,11667,15430,0.048,551
2019-08-12T02:22:58,42.805,6.029,CST-1368DR,8338,11664,15426,0.049,551
2019-08-12T02:26:00,42.805,6.029,CST-1368DR,8338,11662,15423,0.050,551
2019-08-12T02:29:02,42.805,6.029,CST-1368DR,8338,11663,15423,0.050,550
2019-08-12T02:32:04,42.805,6.029,CST-1368DR,8338,11667,15429,0.048,551
2019-08-12T02:35:06,42.805,6.029,CST-1368DR,8338,11663,15424,0.049,551
2019-08-12T02:38:07,42.805,6.029,CST-1368DR,8338,11665,15426,0.049,551
2019-08-12T02:41:09,42.805,6.029,CST-1368DR,8338,11664,15425,0.049,551
2019-08-12T02:44:11,42.805,6.029,CST-1368DR,8338,11662,15422,0.050,551
2019-08-12T02:47:13,42.805,6.029,CST-1368DR,8338,11663,15424,0.049,551
2019-08-12T02:50:15,42.805,6.029,CST-1368DR,8338,11664,15426,0.049,551
2019-08-12T02:53:16,42.805,6.029,CST-1368DR,8338,11665,15426,0.049,551
2019-08-12T02:56:18,42.805,6.029,CST-1368DR,8337,11659,15421,0.050,551
2019-08-12T02:59:20,42.805,6.029,CST-1368DR,8337,11663,15426,0.049,551
2019-08-12T03:02:22,42.805,6.029,CST-1368DR,8337,11660,15422,0.050,551
2019-08-12T03:05:24,42.805,6.029,CST-1368DR,8338,11664,15426,0.049,551
2019-08-12T03:08:25,42.805,6.029,CST-1368DR,8337,11666,15429,0.048,550
2019-08-12T03:11:27,42.805,6.029,CST-1368DR,8337,11664,15427,0.049,551
2019-08-12T03:14:29,42.805,6.029,CST-1368DR,8337,11664,15427,0.049,551
2019-08-12T03:17:31,42.805,6.029,CST-1368DR,8337,11665,15428,0.048,551
2019-08-12T03:20:33,42.805,6.029,CST-1368DR,8337,11666,15430,0.048,551
2019-08-12T03:23:34,42.805,6.029,CST-1368DR,8337,11667,15430,0.048,551
2019-08-12T03:26:36,42.805,6.029,CST-1368DR,8337,11666,15430,0.048,550
2019-08-12T03:29:38,42.805,6.029,CST-1368DR,8337,11659,15421,0.050,551
2019-08-12T03:32:40,42.805,6.029,CST-1368DR,8337,11665,15428,0.048,551
2019-08-12T03:35:42,42.805,6.029,CST-1368DR,8337,11666,15430,0.048,551
2019-08-12T03:38:43,42.805,6.029,CST-1368DR,8337,11666,15429,0.048,550
2019-08-12T03:41:45,42.805,6.029,CST-1368DR,8337,11666,15429,0.048,551
2019-08-12T03:44:47,42.805,6.029,CST-1368DR,8337,11666,15430,0.048,550
2019-08-12T03:47:49,42.805,6.029,CST-1368DR,8337,11668,15432,0.047,551
2019-08-12T03:50:51,42.805,6.029,CST-1368DR,8337,11666,15430,0.048,551
2019-08-12T03:53:52,42.805,6.029,CST-1368DR,8337,11665,15429,0.048,551
2019-08-12T03:56:54,42.805,6.029,CST-1368DR,8337,11667,15431,0.048,551
2019-08-12T03:59:56,42.805,6.029,CST-1368DR,8337,11665,15429,0.048,551
2019-08-12T04:02:58,42.805,6.029,CST-1368DR,8337,11664,15427,0.049,551
2019-08-12T04:06:00,42.805,6.029,CST-1368DR,8337,11665,15428,0.048,551
2019-08-12T04:09:02,42.805,6.029,CST-1368DR,8337,11664,15427,0.049,551
2019-08-12T04:12:03,42.805,6.029,CST-1368DR,8337,11665,15428,0.048,551
2019-08-12T04:15:05,42.805,6.029,CST-1368DR,8337,11665,15428,0.048,551
2019-08-12T04:18:07,42.805,6.029,CST-1368DR,8337,11666,15429,0.048,551
2019-08-12T04:21:09,42.805,6.029,CST-1368DR,8337,11667,15431,0.048,551
2019-08-12T04:24:11,42.805,6.029,CST-1368DR,8337,11667,15431,0.048,551
2019-08-12T04:27:13,42.805,6.029,CST-1368DR,8337,11665,15429,0.048,551
2019-08-12T04:30:14,42.805,6.029,CST-1368DR,8337,11665,15429,0.048,551
2019-08-12T04:33:16,42.805,6.029,CST-1368DR,8337,11666,15430,0.048,551
2019-08-12T04:36:18,42.805,6.029,CST-1368DR,8337,11666,15430,0.048,551
2019-08-12T04:39:20,42.805,6.029,CST-1368DR,8337,11666,15430,0.048,551
2019-08-12T04:42:21,42.805,6.029,CST-1368DR,8337,11665,15428,0.048,551
2019-08-12T04:45:23,42.805,6.029,CST-1368DR,8337,11664,15427,0.049,550
2019-08-12T04:48:25,42.805,6.029,CST-1368DR,8337,11664,15427,0.049,551
2019-08-12T04:51:27,42.805,6.029,CST-1368DR,8337,11666,15429,0.048,551
2019-08-12T04:54:29,42.805,6.029,CST-1368DR,8337,11665,15429,0.048,551
2019-08-12T04:57:31,42.805,6.029,CST-1368DR,8337,11664,15427,0.049,551
2019-08-12T05:00:32,42.805,6.029,CST-1368DR,8337,11662,15424,0.049,551
2019-08-12T05:03:34,42.805,6.029,CST-1368DR,8337,11666,15429,0.048,551
2019-08-12T05:06:36,42.805,6.029,CST-1368DR,8337,11664,15427,0.049,551
2019-08-12T05:09:38,42.805,6.029,CST-1368DR,8337,11662,15425,0.049,551
2019-08-12T05:12:40,42.805,6.029,CST-1368DR,8337,11666,15429,0.048,551
2019-08-12T05:15:42,42.805,6.029,CST-1368DR,8336,11665,15430,0.048,551
2019-08-12T05:18:44,42.805,6.029,CST-1368DR,8336,11664,15429,0.048,551
2019-08-12T05:21:45,42.805,6.029,CST-1368DR,8336,11665,15430,0.048,551
2019-08-12T05:24:47,42.805,6.029,CST-1368DR,8336,11663,15428,0.048,551
2019-08-12T05:27:49,42.805,6.029,CST-1368DR,8337,11664,15427,0.049,551
2019-08-12T05:30:51,42.805,6.029,CST-1368DR,8336,11665,15430,0.048,550
2019-08-12T05:33:53,42.805,6.029,CST-1368DR,8336,11665,15431,0.048,551
2019-08-12T05:36:55,42.805,6.029,CST-1368DR,8336,11666,15431,0.048,551
2019-08-12T05:39:56,42.805,6.029,CST-1368DR,8336,11666,15431,0.048,551
2019-08-12T05:42:58,42.805,6.029,CST-1368DR,8336,11665,15430,0.048,551
2019-08-12T05:46:00,42.805,6.029,CST-1368DR,8336,11664,15429,0.048,551
2019-08-12T05:49:02,42.805,6.029,CST-1368DR,8336,11664,15429,0.048,551
2019-08-12T05:52:03,42.805,6.029,CST-1368DR,8337,11664,15427,0.049,551
2019-08-12T05:55:05,42.805,6.029,CST-1368DR,8336,11659,15422,0.050,551
2019-08-12T05:58:07,42.805,6.029,CST-1368DR,8336,11664,15429,0.048,551
2019-08-12T06:01:09,42.805,6.029,CST-1368DR,8336,11664,15428,0.048,551
2019-08-12T06:04:11,42.805,6.029,CST-1368DR,8336,11658,15421,0.050,551
2019-08-12T06:07:12,42.805,6.029,CST-1368DR,8336,11661,15425,0.049,551
2019-08-12T06:10:14,42.805,6.029,CST-1368DR,8336,11665,15430,0.048,551
2019-08-12T06:13:16,42.805,6.029,CST-1368DR,8336,11665,15430,0.048,551
2019-08-12T06:16:18,42.805,6.029,CST-1368DR,8336,11666,15431,0.048,551
2019-08-12T06:19:20,42.805,6.029,CST-1368DR,8336,11665,15430,0.048,551
2019-08-12T06:22:21,42.805,6.029,CST-1368DR,8336,11661,15425,0.049,551
2019-08-12T06:25:23,42.805,6.029,CST-1368DR,8336,11665,15430,0.048,551
2019-08-12T06:28:25,42.805,6.029,CST-1368DR,8336,11662,15426,0.049,551
2019-08-12T06:31:27,42.805,6.029,CST-1368DR,8336,11665,15430,0.048,551
2019-08-12T06:34:29,42.805,6.029,CST-1368DR,8336,11664,15429,0.048,551
2019-08-12T06:37:31,42.805,6.029,CST-1368DR,8336,11665,15430,0.048,550
2019-08-12T06:40:32,42.805,6.029,CST-1368DR,8336,11662,15426,0.049,551
2019-08-12T06:43:34,42.805,6.029,CST-1368DR,8336,11662,15426,0.049,551
2019-08-12T06:46:36,42.805,6.029,CST-1368DR,8336,11659,15422,0.050,551
2019-08-12T06:49:38,42.805,6.029,CST-1368DR,8336,11663,15427,0.049,551
2019-08-12T06:52:40,42.805,6.029,CST-1368DR,8336,11661,15425,0.049,551
2019-08-12T06:55:41,42.805,6.029,CST-1368DR,8336,11665,15430,0.048,551
2019-08-12T06:58:43,42.805,6.029,CST-1368DR,8336,11664,15429,0.048,551
2019-08-12T07:01:45,42.805,6.029,CST-1368DR,8336,11666,15431,0.048,551
2019-08-12T07:04:47,42.805,6.029,CST-1368DR,8336,11665,15430,0.048,551
2019-08-12T07:07:48,42.805,6.029,CST-1368DR,8336,11664,15429,0.048,551
2019-08-12T07:10:50,42.805,6.029,CST-1368DR,8336,11663,15428,0.048,551
2019-08-12T07:13:52,42.805,6.029,CST-1368DR,8336,11665,15430,0.048,551
2019-08-12T07:16:54,42.805,6.029,CST-1368DR,8336,11664,15428,0.048,551
2019-08-12T07:19:56,42.805,6.029,CST-1368DR,8336,11664,15429,0.048,551
2019-08-12T07:22:57,42.805,6.029,CST-1368DR,8336,11664,15429,0.048,551
2019-08-12T07:25:59,42.805,6.029,CST-1368DR,8335,11659,15423,0.050,551
2019-08-12T07:29:01,42.805,6.029,CST-1368DR,8336,11661,15425,0.049,551
2019-08-12T07:32:02,42.805,6.029,CST-1368DR,8335,11665,15432,0.047,551
2019-08-12T07:35:04,42.805,6.029,CST-1368DR,8336,11664,15429,0.048,551
2019-08-12T07:38:06,42.805,6.029,CST-1368DR,8336,11665,15430,0.048,551
2019-08-12T07:41:07,42.805,6.029,CST-1368DR,8336,11665,15430,0.048,551
2019-08-12T07:44:09,42.805,6.029,CST-1368DR,8336,11664,15429,0.048,551
2019-08-12T07:47:11,42.805,6.029,CST-1368DR,8336,11664,15429,0.048,550
2019-08-12T07:50:12,42.805,6.029,CST-1368DR,8335,11663,15429,0.048,551
2019-08-12T07:53:14,42.805,6.029,CST-1368DR,8335,11664,15430,0.048,551
2019-08-12T07:56:15,42.805,6.029,CST-1368DR,8335,11664,15430,0.048,551
2019-08-12T07:59:17,42.805,6.029,CST-1368DR,8335,11665,15431,0.048,551
2019-08-12T08:02:19,42.805,6.029,CST-1368DR,8335,11660,15425,0.049,551
2019-08-12T08:05:20,42.805,6.029,CST-1368DR,8335,11661,15426,0.049,550
2019-08-12T08:08:22,42.805,6.029,CST-1368DR,8335,11664,15430,0.048,551
2019-08-12T08:11:24,42.805,6.029,CST-1368DR,8335,11664,15430,0.048,551
2019-08-12T08:14:25,42.805,6.029,CST-1368DR,8335,11663,15429,0.048,550
2019-08-12T08:17:27,42.805,6.029,CST-1368DR,8335,11664,15430,0.048,551
2019-08-12T08:20:29,42.805,6.029,CST-1368DR,8335,11664,15431,0.048,551
2019-08-12T08:23:30,42.805,6.029,CST-1368DR,8335,11665,15432,0.047,551
2019-08-12T08:26:32,42.805,6.029,CST-1368DR,8335,11664,15431,0.048,551
2019-08-12T08:29:34,42.805,6.029,CST-1368DR,8335,11664,15431,0.048,551
2019-08-12T08:32:35,42.805,6.029,CST-1368DR,8335,11664,15430,0.048,550
2019-08-12T08:35:37,42.805,6.029,CST-1368DR,8335,11661,15427,0.049,551
2019-08-12T08:38:38,42.805,6.029,CST-1368DR,8335,11659,15424,0.049,551
2019-08-12T08:41:40,42.805,6.029,CST-1368DR,8335,11665,15432,0.047,550
2019-08-12T08:44:42,42.805,6.029,CST-1368DR,8335,11662,15428,0.048,551
2019-08-12T08:47:43,42.805,6.029,CST-1368DR,8335,11664,15431,0.048,551
2019-08-12T08:50:45,42.805,6.029,CST-1368DR,8335,11664,15431,0.048,551
2019-08-12T08:53:47,42.805,6.029,CST-1368DR,8335,11665,15432,0.047,551
2019-08-12T08:56:48,42.805,6.029,CST-1368DR,8335,11662,15428,0.048,551
2019-08-12T08:59:50,42.805,6.029,CST-1368DR,8335,11662,15427,0.049,551
2019-08-12T09:02:51,42.805,6.029,CST-1368DR,8335,11663,15429,0.048,550
2019-08-12T09:05:53,42.805,6.029,CST-1368DR,8334,11661,15429,0.048,551
2019-08-12T09:08:55,42.805,6.029,CST-1368DR,8334,11659,15425,0.049,550
2019-08-12T09:11:56,42.805,6.029,CST-1368DR,8334,11659,15425,0.049,551
2019-08-12T09:14:58,42.805,6.029,CST-1368DR,8333,11649,15414,0.052,551
2019-08-12T09:18:00,42.805,6.029,CST-1368DR,8333,11659,15427,0.049,551
2019-08-12T09:21:01,42.805,6.029,CST-1368DR,8333,11659,15427,0.049,551
2019-08-12T09:24:03,42.805,6.029,CST-1368DR,8333,11661,15430,0.048,551
2019-08-12T09:27:05,42.805,6.029,CST-1368DR,8333,11654,15421,0.050,551
2019-08-12T09:30:07,42.805,6.029,CST-1368DR,8334,11661,15428,0.048,551
2019-08-12T09:33:09,42.805,6.029,CST-1368DR,8333,11656,15423,0.050,551
2019-08-12T09:36:10,42.805,6.029,CST-1368DR,8333,11660,15429,0.048,550
2019-08-12T09:39:12,42.805,6.029,CST-1368DR,8333,11660,15429,0.048,551
2019-08-12T09:42:14,42.805,6.029,CST-1368DR,8333,11659,15427,0.049,550
2019-08-12T09:45:16,42.805,6.029,CST-1368DR,8333,11659,15427,0.049,551
2019-08-12T09:48:18,42.805,6.029,CST-1368DR,8333,11660,15429,0.048,551
2019-08-12T09:51:19,42.805,6.029,CST-1368DR,8333,11655,15422,0.050,550
2019-08-12T09:54:21,42.805,6.029,CST-1368DR,8334,11659,15426,0.049,551
2019-08-12T09:57:23,42.805,6.029,CST-1368DR,8334,11662,15429,0.048,551
2019-08-12T10:00:25,42.805,6.029,CST-1368DR,8334,11662,15429,0.048,551
2019-08-12T10:03:26,42.805,6.029,CST-1368DR,8334,11659,15426,0.049,551
2019-08-12T10:06:28,42.805,6.029,CST-1368DR,8334,11661,15428,0.048,550
2019-08-12T10:09:30,42.805,6.029,CST-1368DR,8334,11660,15427,0.049,551
2019-08-12T10:12:32,42.805,6.029,CST-1368DR,8334,11662,15430,0.048,551
2019-08-12T10:15:33,42.805,6.029,CST-1368DR,8334,11661,15428,0.048,551
2019-08-12T10:18:35,42.805,6.029,CST-1368DR,8334,11662,15430,0.048,551
2019-08-12T10:21:37,42.805,6.029,CST-1368DR,8334,11662,15429,0.048,550
2019-08-12T10:24:39,42.805,6.029,CST-1368DR,8334,11659,15425,0.049,550
2019-08-12T10:27:41,42.805,6.029,CST-1368DR,8334,11662,15429,0.048,551
2019-08-12T10:30:43,42.805,6.029,CST-1368DR,8334,11662,15430,0.048,551
2019-08-12T10:33:45,42.805,6.029,CST-1368DR,8334,11662,15429,0.048,551
2019-08-12T10:36:46,42.805,6.029,CST-1368DR,8334,11662,15429,0.048,550
2019-08-12T10:39:48,42.805,6.029,CST-1368DR,8334,11659,15425,0.049,551
2019-08-12T10:42:50,42.805,6.029,CST-1368DR,8334,11662,15430,0.048,551
2019-08-12T10:45:52,42.805,6.029,CST-1368DR,8334,11662,15430,0.048,551
2019-08-12T10:48:54,42.805,6.029,CST-1368DR,8334,11661,15428,0.048,551
2019-08-12T10:51:55,42.805,6.029,CST-1368DR,8334,11661,15428,0.048,551
2019-08-12T10:54:57,42.805,6.029,CST-1368DR,8334,11657,15423,0.050,551
2019-08-12T10:57:59,42.805,6.029,CST-1368DR,8334,11660,15427,0.049,551
2019-08-12T11:01:01,42.805,6.029,CST-1368DR,8334,11659,15425,0.049,551
2019-08-12T11:04:02,42.805,6.029,CST-1368DR,8334,11661,15428,0.048,551
2019-08-12T11:07:04,42.805,6.029,CST-1368DR,8334,11659,15426,0.049,551
2019-08-12T11:10:06,42.805,6.029,CST-1368DR,8334,11661,15428,0.048,551
2019-08-12T11:13:08,42.805,6.029,CST-1368DR,8334,11655,15420,0.051,551
2019-08-12T11:16:10,42.805,6.029,CST-1368DR,8334,11655,15420,0.051,551
2019-08-12T11:19:11,42.805,6.029,CST-1368DR,8334,11660,15426,0.049,551
2019-08-12T11:22:13,42.805,6.029,CST-1368DR,8334,11657,15423,0.050,551
2019-08-12T11:25:15,42.805,6.029,CST-1368DR,8334,11658,15424,0.049,550
2019-08-12T11:28:17,42.805,6.029,CST-1368DR,8334,11661,15429,0.048,551
2019-08-12T11:31:18,42.805,6.029,CST-1368DR,8334,11661,15428,0.048,551
2019-08-12T11:34:20,42.805,6.029,CST-1368DR,8334,11661,15428,0.048,551
2019-08-12T11:37:22,42.805,6.029,CST-1368DR,8334,11661,15428,0.048,551
2019-08-12T11:40:24,42.805,6.029,CST-1368DR,8334,11661,15428,0.048,551
2019-08-12T11:43:26,42.805,6.029,CST-1368DR,8334,11661,15428,0.048,551
2019-08-12T11:46:28,42.805,6.029,CST-1368DR,8334,11661,15429,0.048,550
2019-08-12T11:49:29,42.805,6.029,CST-1368DR,8334,11659,15425,0.049,551
2019-08-12T11:52:31,42.805,6.029,CST-1368DR,8334,11658,15424,0.049,551
2019-08-12T11:55:33,42.805,6.029,CST-1368DR,8333,11656,15424,0.049,551
2019-08-12T11:58:35,42.805,6.029,CST-1368DR,8334,11658,15425,0.049,551
2019-08-12T12:01:37,42.805,6.029,CST-1368DR,8334,11659,15426,0.049,551
2019-08-12T12:04:38,42.805,6.029,CST-1368DR,8334,11658,15424,0.049,551
2019-08-12T12:07:40,42.805,6.029,CST-1368DR,8334,11661,15428,0.048,551
2019-08-12T12:10:42,42.805,6.029,CST-1368DR,8334,11658,15425,0.049,551
2019-08-12T12:13:44,42.805,6.029,CST-1368DR,8334,11660,15427,0.049,551
2019-08-12T12:16:45,42.805,6.029,CST-1368DR,8333,11662,15431,0.048,551
2019-08-12T12:19:47,42.805,6.029,CST-1368DR,8333,11661,15430,0.048,551
2019-08-12T12:22:49,42.805,6.029,CST-1368DR,8333,11661,15429,0.048,551
2019-08-12T12:25:51,42.805,6.029,CST-1368DR,8333,11657,15425,0.049,550
2019-08-12T12:28:53,42.805,6.029,CST-1368DR,8333,11661,15430,0.048,550
2019-08-12T12:31:54,42.805,6.029,CST-1368DR,8333,11659,15428,0.048,551
2019-08-12T12:34:56,42.805,6.029,CST-1368DR,8333,11660,15429,0.048,551
2019-08-12T12:37:58,42.805,6.029,CST-1368DR,8333,11659,15428,0.048,550
2019-08-12T12:41:00,42.805,6.029,CST-1368DR,8333,11659,15427,0.049,551
2019-08-12T12:44:02,42.805,6.029,CST-1368DR,8333,11659,15427,0.049,551
2019-08-12T12:47:04,42.805,6.029,CST-1368DR,8333,11661,15430,0.048,551
2019-08-12T12:50:06,42.805,6.029,CST-1368DR,8333,11658,15425,0.049,551
2019-08-12T12:53:07,42.805,6.029,CST-1368DR,8333,11656,15423,0.050,551
2019-08-12T12:56:09,42.805,6.029,CST-1368DR,8333,11661,15430,0.048,550
2019-08-12T12:59:11,42.805,6.029,CST-1368DR,8333,11661,15430,0.048,551
2019-08-12T13:02:13,42.805,6.029,CST-1368DR,8333,11660,15428,0.048,551
2019-08-12T13:05:14,42.805,6.029,CST-1368DR,8333,11659,15428,0.048,551
2019-08-12T13:08:16,42.805,6.029,CST-1368DR,8333,11659,15427,0.049,551
2019-08-12T13:11:18,42.805,6.029,CST-1368DR,8333,11660,15428,0.048,550
2019-08-12T13:14:20,42.805,6.029,CST-1368DR,8333,11660,15428,0.048,551
2019-08-12T13:17:22,42.805,6.029,CST-1368DR,8333,11661,15429,0.048,551
2019-08-12T13:20:23,42.805,6.029,CST-1368DR,8333,11660,15428,0.048,551
2019-08-12T13:23:25,42.805,6.029,CST-1368DR,8333,11659,15427,0.049,551
2019-08-12T13:26:27,42.805,6.029,CST-1368DR,8333,11658,15426,0.049,550
2019-08-12T13:29:29,42.805,6.029,CST-1368DR,8333,11658,15426,0.049,551
2019-08-12T13:32:31,42.805,6.029,CST-1368DR,8333,11660,15428,0.048,550
2019-08-12T13:35:33,42.805,6.029,CST-1368DR,8333,11658,15425,0.049,551
2019-08-12T13:38:34,42.805,6.029,CST-1368DR,8333,11659,15427,0.049,551
2019-08-12T13:41:36,42.805,6.029,CST-1368DR,8333,11659,15428,0.048,551
2019-08-12T13:44:38,42.805,6.029,CST-1368DR,8333,11660,15428,0.048,550
2019-08-12T13:47:40,42.805,6.029,CST-1368DR,8333,11661,15429,0.048,551
2019-08-12T13:50:42,42.805,6.029,CST-1368DR,8333,11661,15430,0.048,551
2019-08-12T13:53:43,42.805,6.029,CST-1368DR,8333,11661,15430,0.048,551
2019-08-12T13:56:45,42.805,6.029,CST-1368DR,8333,11660,15428,0.048,551
2019-08-12T13:59:47,42.805,6.029,CST-1368DR,8333,11659,15428,0.048,551
2019-08-12T14:02:49,42.805,6.029,CST-1368DR,8333,11659,15428,0.048,551
2019-08-12T14:05:51,42.805,6.029,CST-1368DR,8333,11659,15428,0.048,551
2019-08-12T14:08:53,42.805,6.029,CST-1368DR,8333,11660,15429,0.048,551
2019-08-12T14:11:54,42.805,6.029,CST-1368DR,8333,11659,15427,0.049,551
2019-08-12T14:14:56,42.805,6.029,CST-1368DR,8333,11660,15429,0.048,551
2019-08-12T14:17:58,42.805,6.029,CST-1368DR,8333,11659,15428,0.048,551
2019-08-12T14:21:00,42.805,6.029,CST-1368DR,8333,11660,15428,0.048,551
2019-08-12T14:24:02,42.805,6.029,CST-1368DR,8333,11658,15426,0.049,551
2019-08-12T14:27:03,42.805,6.029,CST-1368DR,8333,11659,15427,0.049,551
2019-08-12T14:30:05,42.805,6.029,CST-1368DR,8333,11658,15426,0.049,551
2019-08-12T14:33:07,42.805,6.029,CST-1368DR,8333,11659,15427,0.049,551
2019-08-12T14:36:09,42.805,6.029,CST-1368DR,8333,11659,15428,0.048,551
2019-08-12T14:39:11,42.805,6.029,CST-1368DR,8333,11659,15427,0.049,551
2019-08-12T14:42:12,42.805,6.029,CST-1368DR,8333,11660,15429,0.048,551
2019-08-12T14:45:14,42.805,6.029,CST-1368DR,8333,11659,15427,0.049,551
2019-08-12T14:48:16,42.805,6.029,CST-1368DR,8332,11658,15428,0.048,551
2019-08-12T14:51:18,42.805,6.029,CST-1368DR,8332,11659,15429,0.048,551
2019-08-12T14:54:20,42.805,6.029,CST-1368DR,8333,11659,15427,0.049,551
2019-08-12T14:57:22,42.805,6.029,CST-1368DR,8333,11658,15426,0.049,551
2019-08-12T15:00:24,42.805,6.029,CST-1368DR,8333,11655,15421,0.050,551
2019-08-12T15:03:25,42.805,6.029,CST-1368DR,8332,11659,15429,0.048,551
2019-08-12T15:06:27,42.805,6.029,CST-1368DR,8332,11659,15428,0.048,551
2019-08-12T15:09:29,42.805,6.029,CST-1368DR,8332,11657,15427,0.049,551
2019-08-12T15:12:31,42.805,6.029,CST-1368DR,8332,11658,15428,0.048,551
2019-08-12T15:15:32,42.805,6.029,CST-1368DR,8332,11659,15428,0.048,551
2019-08-12T15:18:34,42.805,6.029,CST-1368DR,8332,11658,15427,0.049,551
2019-08-12T15:21:36,42.805,6.029,CST-1368DR,8332,11659,15429,0.048,551
2019-08-12T15:24:38,42.805,6.029,CST-1368DR,8332,11660,15431,0.048,550
2019-08-12T15:27:40,42.805,6.029,CST-1368DR,8332,11659,15429,0.048,550
2019-08-12T15:30:42,42.805,6.029,CST-1368DR,8332,11660,15430,0.048,551
2019-08-12T15:33:43,42.805,6.029,CST-1368DR,8332,11660,15430,0.048,551
2019-08-12T15:36:45,42.805,6.029,CST-1368DR,8332,11660,15430,0.048,551
2019-08-12T15:39:46,42.805,6.029,CST-1368DR,8332,11659,15428,0.048,551
2019-08-12T15:42:48,42.805,6.029,CST-1368DR,8332,11657,15427,0.049,551
2019-08-12T15:45:50,42.805,6.029,CST-1368DR,8332,11659,15429,0.048,550
2019-08-12T15:48:51,42.805,6.029,CST-1368DR,8332,11658,15428,0.048,551
2019-08-12T15:51:53,42.805,6.029,CST-1368DR,8332,11659,15429,0.048,551
2019-08-12T15:54:55,42.805,6.029,CST-1368DR,8332,11659,15428,0.048,551
2019-08-12T15:57:56,42.805,6.029,CST-1368DR,8332,11659,15428,0.048,551
2019-08-12T16:00:58,42.805,6.029,CST-1368DR,8332,11658,15428,0.048,551
2019-08-12T16:03:59,42.805,6.029,CST-1368DR,8332,11659,15429,0.048,551
2019-08-12T16:07:01,42.805,6.029,CST-1368DR,8332,11659,15429,0.048,551
2019-08-12T16:10:03,42.805,6.029,CST-1368DR,8332,11659,15429,0.048,551
2019-08-12T16:13:04,42.805,6.029,CST-1368DR,8332,11658,15428,0.048,551
2019-08-12T16:16:06,42.805,6.029,CST-1368DR,8332,11660,15430,0.048,551
2019-08-12T16:19:08,42.805,6.029,CST-1368DR,8332,11660,15431,0.048,551
2019-08-12T16:22:09,42.805,6.029,CST-1368DR,8332,11658,15428,0.048,550
2019-08-12T16:25:11,42.805,6.029,CST-1368DR,8332,11660,15430,0.048,551
2019-08-12T16:28:13,42.805,6.029,CST-1368DR,8332,11659,15429,0.048,551
2019-08-12T16:31:14,42.805,6.029,CST-1368DR,8332,11658,15428,0.048,551
2019-08-12T16:34:16,42.805,6.029,CST-1368DR,8332,11658,15428,0.048,551
2019-08-12T16:37:18,42.805,6.029,CST-1368DR,8332,11659,15428,0.048,551